Content
SEND FEEDBACK

Daily
Averages
Monthly
Summary
United States of America

MERIZO, GUAM


Home > North America > United States > Guam
Elevation: 10 feet     Latitude: 13 14N     Longitude: 144 39E

WEATHER
 
SELECT A DAY
Number of Records: 342,637;   Date Range: 1/1/95 - 9/20/14
 
SHARE

PRINT THIS DATA

[ ← Previous Day ]
WEATHER ALMANAC - MARCH 23, 2013
[ Next Day → ]
[ °C ]   °F
Weather ElementAverageHighLow
Temperature78.3 °F84.2 °F (11:23 am)73.4 °F (11:41 pm)
Dewpoint73.4 °F75.2 °F (11:23 am)71.6 °F (5:10 am)
Humidity85.3 %100 % (11:54 pm)70 % (11:44 am)
Barometer29.87 in29.91 in (10:55 pm)29.79 in (3:55 pm)
Wind Speed12.5 mph20.7 mph (11:33 pm)
Wind Gust26.5 mph (11:27 pm)
Weather ElementAverage
Visibility8.4 mi
Wind DirectionENE (62.6 °)

Weather ElementTotal
Precipitation---
Cooling Degree Days13.8 (Base 65)
Growing Degree Days28.8 (Base 50)
Averaged from 98 records on March 23, 2013
WEATHER CONDITIONS BREAKOUT
WIND DIRECTION BREAKOUT
WEATHER BY HOUR - MARCH 23, 2013
[ °C ]   °F
Local TimeTemperatureDewpointHumidityBarometerVisibilityWind DirectionWind SpeedGust SpeedPrecipitationEventsConditions
12:55 AM77.4 °F73.9 °F89 %29.88 in10.0 miNE (40°)12.7 mphMostly Cloudy
12:56 AM77.0 °F73.4 °F89 %29.88 in10.0 miNE (40°)11.5 mphMostly Cloudy
12:58 AM77.0 °F73.4 °F89 %29.88 in10.0 miNE (40°)12.7 mphMostly Cloudy
12:59 AM77.0 °F73.4 °F89 %29.88 in10.0 miNE (40°)12.7 mphMostly Cloudy
1:09 AM77.0 °F73.4 °F89 %29.88 in10.0 miNE (40°)16.1 mphMostly Cloudy
1:17 AM77.0 °F73.4 °F89 %29.88 in10.0 miNE (40°)15.0 mphMostly Cloudy
1:23 AM77.0 °F73.4 °F89 %29.87 in10.0 miNE (40°)15.0 mphMostly Cloudy
1:24 AM77.0 °F73.4 °F89 %29.87 in10.0 miNE (40°)13.8 mphScattered Clouds
1:55 AM77.4 °F73.6 °F88 %29.86 in10.0 miNE (50°)12.7 mphScattered Clouds
1:59 AM77.0 °F73.4 °F89 %29.86 in10.0 miNE (50°)16.1 mphMostly Cloudy
2:02 AM77.0 °F73.4 °F89 %29.86 in10.0 miNE (50°)16.1 mphRainLight Rain
2:04 AM77.0 °F73.4 °F89 %29.86 in10.0 miNE (50°)16.1 mphRainLight Rain
2:08 AM77.0 °F73.4 °F89 %29.86 in10.0 miNE (50°)13.8 mphRainLight Rain
2:12 AM77.0 °F73.4 °F89 %29.86 in10.0 miNE (50°)13.8 mphMostly Cloudy
2:14 AM77.0 °F73.4 °F89 %29.86 in10.0 miNE (50°)13.8 mphMostly Cloudy
2:16 AM77.0 °F73.4 °F89 %29.86 in10.0 miNE (50°)15.0 mphMostly Cloudy
2:19 AM77.0 °F73.4 °F89 %29.86 in9.0 miNE (50°)13.8 mphRainLight Rain
2:23 AM77.0 °F73.4 °F89 %29.86 in9.0 miNE (40°)16.1 mphRainLight Rain
2:31 AM77.0 °F73.4 °F89 %29.85 in10.0 miNE (50°)16.1 mphMostly Cloudy
2:52 AM77.0 °F73.4 °F89 %29.85 in10.0 miNE (50°)16.1 mphMostly Cloudy
2:53 AM77.0 °F73.4 °F89 %29.85 in10.0 miNE (50°)13.8 mphMostly Cloudy
2:55 AM77.0 °F73.4 °F89 %29.85 in10.0 miNE (50°)13.8 mphMostly Cloudy
3:09 AM77.0 °F73.4 °F89 %29.85 in10.0 miNE (50°)13.8 mphScattered Clouds
3:26 AM77.0 °F73.4 °F89 %29.84 in10.0 miNE (50°)15.0 mphMostly Cloudy
3:55 AM77.0 °F72.7 °F86 %29.85 in10.0 miNE (50°)15.0 mphOvercast
4:05 AM77.0 °F73.4 °F89 %29.84 in10.0 miNE (50°)13.8 mphMostly Cloudy
4:55 AM77.0 °F71.8 °F84 %29.85 in10.0 miNE (50°)13.8 mphPartly Cloudy
5:10 AM77.0 °F71.6 °F83 %29.85 in10.0 miNE (50°)12.7 mphMostly Cloudy
5:29 AM77.0 °F71.6 °F83 %29.85 in10.0 miNE (50°)12.7 mphScattered Clouds
5:55 AM76.8 °F72.5 °F86 %29.86 in10.0 miENE (60°)11.5 mphScattered Clouds
6:55 AM77.4 °F72.0 °F83 %29.87 in10.0 miNE (50°)11.5 mphPartly Cloudy
7:45 AM78.8 °F73.4 °F83 %29.89 in10.0 miNE (50°)12.7 mphMostly Cloudy
7:49 AM78.8 °F73.4 °F83 %29.89 in10.0 miENE (60°)15.0 mphMostly Cloudy
7:55 AM79.5 °F72.3 °F79 %29.89 in10.0 miENE (60°)11.5 mphScattered Clouds
8:55 AM81.3 °F72.1 °F74 %29.90 in10.0 miENE (60°)15.0 mphPartly Cloudy
9:55 AM82.4 °F73.0 °F73 %29.90 in10.0 miENE (60°)13.8 mphScattered Clouds
10:14 AM82.4 °F73.4 °F74 %29.90 in10.0 miNE (40°)13.8 mphMostly Cloudy
10:28 AM82.4 °F73.4 °F74 %29.90 in10.0 miENE (70°)13.8 mphScattered Clouds
10:55 AM83.7 °F73.8 °F72 %29.89 in10.0 miENE (60°)12.7 mph18.4 mphPartly Cloudy
11:23 AM84.2 °F75.2 °F74 %29.88 in10.0 miENE (60°)15.0 mphMostly Cloudy
11:35 AM82.4 °F73.4 °F74 %29.87 in10.0 miENE (60°)12.7 mphScattered Clouds
11:44 AM84.2 °F73.4 °F70 %29.87 in10.0 miNE (50°)12.7 mphMostly Cloudy
11:55 AM83.8 °F74.7 °F74 %29.86 in10.0 miENE (60°)13.8 mphMostly Cloudy
12:52 PM84.2 °F75.2 °F74 %29.84 in10.0 miENE (70°)15.0 mphScattered Clouds
12:53 PM84.2 °F75.2 °F74 %29.84 in10.0 miEast (80°)16.1 mphMostly Cloudy
12:55 PM84.0 °F74.7 °F73 %29.84 in10.0 miENE (70°)16.1 mphMostly Cloudy
12:57 PM84.2 °F75.2 °F74 %29.84 in10.0 miENE (60°)13.8 mphScattered Clouds
1:55 PM84.2 °F74.1 °F72 %29.82 in10.0 miENE (70°)12.7 mphClear
2:55 PM83.3 °F72.9 °F71 %29.80 in10.0 miENE (60°)12.7 mphPartly Cloudy
3:55 PM83.7 °F73.8 °F72 %29.79 in10.0 miNE (50°)12.7 mphScattered Clouds
4:01 PM82.4 °F73.4 °F74 %29.79 in10.0 miNE (50°)12.7 mphMostly Cloudy
4:27 PM82.4 °F73.4 °F74 %29.80 in10.0 miNE (50°)12.7 mphScattered Clouds
4:46 PM82.4 °F73.4 °F74 %29.80 in10.0 miENE (70°)10.4 mphMostly Cloudy
4:55 PM80.8 °F73.6 °F79 %29.81 in10.0 miENE (60°)10.4 mphMostly Cloudy
5:11 PM80.6 °F73.4 °F79 %29.81 in10.0 miENE (70°)11.5 mphScattered Clouds
5:12 PM80.6 °F73.4 °F79 %29.81 in10.0 miENE (70°)11.5 mphMostly Cloudy
5:18 PM80.6 °F73.4 °F79 %29.81 in10.0 miENE (60°)11.5 mphScattered Clouds
5:48 PM80.6 °F73.4 °F79 %29.82 in10.0 miENE (60°)12.7 mphMostly Cloudy
5:50 PM80.6 °F73.4 °F79 %29.82 in10.0 miENE (60°)12.7 mphScattered Clouds
5:55 PM79.5 °F73.0 °F80 %29.82 in10.0 miENE (60°)11.5 mphScattered Clouds
6:29 PM78.8 °F73.4 °F83 %29.83 in10.0 miENE (60°)12.7 mphMostly Cloudy
6:40 PM78.8 °F73.4 °F83 %29.83 in10.0 miENE (60°)11.5 mphMostly Cloudy
6:43 PM78.8 °F73.4 °F83 %29.83 in10.0 miENE (60°)11.5 mphMostly Cloudy
6:55 PM78.3 °F74.1 °F87 %29.84 in10.0 miENE (60°)11.5 mphMostly Cloudy
7:55 PM77.9 °F72.7 °F84 %29.86 in10.0 miENE (70°)9.2 mphClear
8:55 PM77.4 °F74.3 °F90 %29.88 in10.0 miENE (60°)9.2 mphClear
9:24 PM78.8 °F75.2 °F89 %29.89 in10.0 miENE (60°)11.5 mphMostly Cloudy
9:26 PM78.8 °F75.2 °F89 %29.89 in10.0 miENE (60°)11.5 mphScattered Clouds
9:55 PM77.7 °F74.1 °F89 %29.90 in10.0 miENE (60°)9.2 mphPartly Cloudy
10:33 PM78.8 °F75.2 °F89 %29.90 in10.0 miENE (60°)9.2 mphMostly Cloudy
10:41 PM78.8 °F75.2 °F89 %29.90 in10.0 miENE (60°)8.1 mphMostly Cloudy
10:49 PM78.8 °F75.2 °F89 %29.90 in10.0 miENE (60°)12.7 mphOvercast
10:55 PM78.6 °F74.7 °F88 %29.91 in10.0 miENE (60°)11.5 mphOvercast
10:57 PM78.8 °F75.2 °F89 %29.91 in10.0 miENE (60°)10.4 mphOvercast
11:12 PM78.8 °F75.2 °F89 %29.91 in10.0 miENE (60°)11.5 mphMostly Cloudy
11:15 PM78.8 °F75.2 °F89 %29.90 in10.0 miENE (60°)10.4 mphMostly Cloudy
11:20 PM78.8 °F75.2 °F89 %29.90 in10.0 miNE (50°)9.2 mphMostly Cloudy
11:21 PM78.8 °F75.2 °F89 %29.90 in10.0 miNE (50°)9.2 mphMostly Cloudy
11:27 PM78.8 °F73.4 °F83 %29.91 in9.0 miEast (80°)18.4 mph26.5 mphMostly Cloudy
11:29 PM78.8 °F73.4 °F83 %29.91 in5.0 miEast (90°)13.8 mph26.5 mphRainLight Rain
11:33 PM77.0 °F73.4 °F89 %29.90 in2.5 miEast (100°)20.7 mph26.5 mphRainLight Rain
11:35 PM75.2 °F73.4 °F94 %29.91 in2.0 miEast (100°)17.3 mph26.5 mphRainLight Rain
11:36 PM75.2 °F73.4 °F94 %29.91 in1.5 miEast (90°)18.4 mph26.5 mphRainLight Rain
11:37 PM75.2 °F73.4 °F94 %29.91 in1.5 miEast (90°)19.6 mph26.5 mphRainHeavy Rain
11:38 PM75.2 °F71.6 °F89 %29.91 in1.2 miEast (90°)17.3 mph26.5 mphRainHeavy Rain
11:41 PM73.4 °F71.6 °F94 %29.91 in1.0 miEast (100°)12.7 mph26.5 mphRainHeavy Rain
11:42 PM73.4 °F71.6 °F94 %29.91 in1.0 miEast (90°)11.5 mph26.5 mphRainHeavy Rain
11:43 PM73.4 °F71.6 °F94 %29.91 in1.0 miEast (90°)11.5 mphRainHeavy Rain
11:45 PM73.4 °F71.6 °F94 %29.91 in1.0 miEast (90°)11.5 mphRainHeavy Rain
11:47 PM73.4 °F71.6 °F94 %29.91 in1.0 miEast (80°)9.2 mphRainHeavy Rain
11:49 PM73.4 °F71.6 °F94 %29.91 in1.2 miENE (70°)5.8 mphRainHeavy Rain
11:50 PM73.4 °F71.6 °F94 %29.91 in1.2 miEast (80°)5.8 mphRainHeavy Rain
11:51 PM73.4 °F71.6 °F94 %29.91 in1.5 miEast (80°)5.8 mphRainHeavy Rain
11:52 PM73.4 °F71.6 °F94 %29.91 in1.5 miEast (90°)4.6 mphRainHeavy Rain
11:54 PM73.4 °F73.4 °F100 %29.91 in2.0 miEast (100°)5.8 mphRainRain
11:55 PM73.8 °F72.5 °F96 %29.91 in2.0 miEast (100°)5.8 mph0.00 inRainRain
11:56 PM73.4 °F73.4 °F100 %29.90 in2.5 miESE (110°)4.6 mphRainRain
11:57 PM73.4 °F73.4 °F100 %29.90 in3.0 miESE (110°)3.5 mphRainLight Rain
Hourly data recorded from PGUA, located miles away from Merizo, Guam







STORIES FROM OUR PARTNERS